Home > Weather > Hammerfest > Past weeks

Flag for Norway Past Weather in Hammerfest, Norway — Yesterday and Last 2 Weeks

Now
45 °F

Partly sunny.


Feels Like: 38 °F
Forecast: 46 / 50 °F
Wind: 13 mph from West

Location: Hammerfest

Current Time: Aug 28, 2016 at 9:15:56 AM

Latest Report: Aug 28, 2016 at 8:20 AM


Visibility: N/A

Pressure: 29.74 "Hg

Humidity: 93%

Dew Point: 43 °F

Location of HammerfestLocation

Past Weather in Hammerfest — Graph

°F

Hammerfest Temperature Yesterday

Maximum temperature yesterday: 43 °F (at 8:50 AM)
Minimum temperature yesterday: 39 °F (at 12:50 AM)
Average temperature yesterday: 42 °F

High & Low Weather Summary for the Past Weeks

 TemperatureHumidityPressure
High73 °F (Aug 18, 3:50 PM)100% (Aug 21, 7:20 AM)30.24 "Hg (Aug 21, 7:20 AM)
Low37 °F (Aug 26, 11:20 PM)31% (Aug 18, 4:50 PM)29.68 "Hg (Aug 13, 7:50 AM)
Average51 °F76%29.99 "Hg
* Reported Aug 13 7:50 AM — Aug 28 7:50 AM, Hammerfest, Weather by CustomWeather, © 2016

Note: Actual official high and low records may vary slightly from our data, if they occured in-between our weather recording intervals... More about our weather records

Advertising

Hammerfest Weather History for the Previous 24 Hours

Scroll right to see more
 ConditionsComfort  
Time TempWeatherWind HumidityBarometerVisibility
7:50 AM
Sun, Aug 28
45 °FPartly sunny.16 mph93%29.74 "HgN/A
7:20 AM45 °FMostly cloudy.13 mph93%29.74 "HgN/A
6:50 AM45 °FMostly cloudy.10 mph87%29.74 "HgN/A
6:20 AM45 °FCloudy.14 mph87%29.71 "HgN/A
5:50 AM45 °FBroken clouds.10 mph87%29.71 "Hg4 mi
5:20 AM45 °FMostly cloudy.14 mph87%29.71 "HgN/A
4:50 AM45 °FMostly cloudy.12 mph87%29.71 "HgN/A
4:20 AM45 °FPassing clouds.14 mph87%29.71 "HgN/A
3:50 AM45 °FOvercast.10 mph87%29.71 "HgN/A
3:20 AM45 °FPassing clouds.10 mph87%29.71 "HgN/A
2:50 AM45 °FMostly cloudy.13 mph87%29.74 "HgN/A
2:20 AM45 °FMostly cloudy.10 mph81%29.74 "HgN/A
1:50 AM43 °FMostly cloudy.13 mph87%29.74 "HgN/A
1:20 AM45 °FOvercast.13 mph81%29.74 "HgN/A
12:50 AM45 °FMostly cloudy.9 mph81%29.74 "HgN/A
12:20 AM43 °FOvercast.10 mph87%29.74 "HgN/A
11:50 PM
Sat, Aug 27
43 °FRain showers. Partly cloudy.9 mph81%29.74 "HgN/A
11:20 PM43 °FOvercast.10 mph87%29.74 "HgN/A
10:50 PM41 °FPartly cloudy.16 mph87%29.74 "HgN/A
10:20 PM43 °FLight rain. Passing clouds.9 mph81%29.74 "HgN/A
9:50 PM43 °FMostly cloudy.8 mph76%29.74 "HgN/A
9:20 PM41 °FMostly cloudy.5 mph76%29.74 "HgN/A
8:50 PM43 °FPartly sunny.8 mph66%29.74 "HgN/A
8:20 PM41 °FPassing clouds.6 mph66%29.74 "HgN/A
7:50 PM41 °FScattered clouds.6 mph66%29.74 "HgN/A
7:20 PM43 °FPartly sunny.8 mph57%29.74 "HgN/A
6:50 PM43 °FPassing clouds.3 mph57%29.74 "HgN/A
6:20 PM43 °FScattered clouds.3 mph53%29.74 "HgN/A
5:50 PM43 °FOvercast.7 mph57%29.74 "HgN/A
5:20 PM43 °FOvercast.6 mph57%29.71 "HgN/A
4:50 PM43 °FOvercast.8 mph53%29.71 "HgN/A
2:50 PM43 °FScattered showers. Broken clouds.13 mph66%29.68 "HgN/A
1:50 PM43 °FScattered showers. Broken clouds.15 mph76%29.68 "HgN/A
12:50 PM43 °FScattered showers. Broken clouds.13 mph76%29.68 "HgN/A
11:50 AM43 °FScattered showers. Broken clouds.10 mph81%29.68 "HgN/A
10:50 AM43 °FScattered showers. Broken clouds.9 mph76%29.68 "HgN/A
9:50 AM43 °FBroken clouds.9 mph71%29.68 "HgN/A
Weather by CustomWeather, © 2016

See weather overviewHow to use our weather pages